Location: Buckland
(65.9785°N, 161.1281°W)
Time: 04:09:27
(UTC+00:00)

Transit 4A - Pass Details

Date: 29 November 2020
Orbit: 864 x 980 km, 66.8° (Epoch: 26 January)

Event Time Altitude Azimuth Distance (km) Brightness Sun altitude
Rises 23:32:29 0° 278° (W) 3,687 11.1 1.6°
Reaches altitude 10° 23:35:03 10° 280° (W) 2,742 10.5 1.6°
Maximum altitude 23:41:31 85° 8° (N) 991 8.1 1.4°
Drops below altitude 10° 23:47:55 10° 99° (E) 2,715 10.3 1.2°
Sets 23:50:28 0° 101° (E) 3,649 10.9 1.1°
